Time,TemperatureF,DewpointF,PressureIn,WindDirection,WindDirectionDegrees,WindSpeedMPH,WindSpeedGustMPH,Humidity,HourlyPrecipIn,Conditions,Clouds,dailyrainin,SolarRadiationWatts/m^2,SoftwareType,DateUTC
2013-07-23 00:02:00,61.0,55.0,29.86,NNW,330,1.0,-999.0,81,-99.99,,,-99.99,0.000000,,2013-07-23 05:02:00,
2013-07-23 00:11:00,61.0,55.0,29.86,NNW,330,1.0,-999.0,81,-99.99,,,-99.99,0.000000,,2013-07-23 05:11:00,
2013-07-23 00:22:00,60.0,54.0,29.86,NNW,331,0.0,-999.0,82,-99.99,,,-99.99,0.000000,,2013-07-23 05:22:00,
2013-07-23 00:33:00,60.0,54.0,29.86,NNW,331,0.0,-999.0,82,-99.99,,,-99.99,0.000000,,2013-07-23 05:33:00,
2013-07-23 00:43:00,60.0,55.0,29.85,NNW,331,0.0,-999.0,83,-99.99,,,-99.99,0.000000,,2013-07-23 05:43:00,
2013-07-23 00:52:00,60.0,55.0,29.86,NNW,330,0.0,-999.0,84,-99.99,,,-99.99,0.000000,,2013-07-23 05:52:00,
2013-07-23 01:01:00,60.0,55.0,29.86,NNW,330,0.0,-999.0,84,-99.99,,,-99.99,0.000000,,2013-07-23 06:01:00,
2013-07-23 01:11:00,59.0,54.0,29.87,NNW,330,0.0,-999.0,85,-99.99,,,-99.99,0.000000,,2013-07-23 06:11:00,
2013-07-23 01:22:00,59.0,55.0,29.87,NNW,330,0.0,-999.0,86,-99.99,,,-99.99,0.000000,,2013-07-23 06:22:00,
2013-07-23 01:33:00,59.0,55.0,29.87,NNW,330,0.0,-999.0,86,-99.99,,,-99.99,0.000000,,2013-07-23 06:33:00,
2013-07-23 01:42:00,59.0,55.0,29.87,NNW,330,0.0,-999.0,86,-99.99,,,-99.99,0.000000,,2013-07-23 06:42:00,
2013-07-23 01:52:00,58.0,54.0,29.87,NNW,330,0.0,-999.0,87,-99.99,,,-99.99,0.000000,,2013-07-23 06:52:00,
2013-07-23 02:01:00,58.0,54.0,29.87,NNW,330,0.0,-999.0,87,-99.99,,,-99.99,0.000000,,2013-07-23 07:01:00,
2013-07-23 02:11:00,57.0,53.0,29.87,NNW,330,0.0,-999.0,88,-99.99,,,-99.99,0.000000,,2013-07-23 07:11:00,
2013-07-23 02:21:00,57.0,53.0,29.88,NNW,330,0.0,-999.0,88,-99.99,,,-99.99,0.000000,,2013-07-23 07:21:00,
2013-07-23 02:33:00,57.0,53.0,29.88,NNW,330,0.0,-999.0,88,-99.99,,,-99.99,0.000000,,2013-07-23 07:33:00,
2013-07-23 02:42:00,57.0,54.0,29.88,NNW,330,0.0,-999.0,89,-99.99,,,-99.99,0.000000,,2013-07-23 07:42:00,
2013-07-23 02:52:00,57.0,54.0,29.88,NNW,330,1.0,-999.0,89,-99.99,,,-99.99,0.000000,,2013-07-23 07:52:00,
2013-07-23 03:01:00,57.0,54.0,29.88,NNW,330,1.0,-999.0,89,-99.99,,,-99.99,0.000000,,2013-07-23 08:01:00,
2013-07-23 03:11:00,57.0,54.0,29.88,NNW,330,1.0,-999.0,90,-99.99,,,-99.99,0.000000,,2013-07-23 08:11:00,
2013-07-23 03:21:00,57.0,54.0,29.88,NNW,330,1.0,-999.0,91,-99.99,,,-99.99,0.000000,,2013-07-23 08:21:00,
2013-07-23 03:33:00,57.0,54.0,29.88,NNW,330,1.0,-999.0,91,-99.99,,,-99.99,0.000000,,2013-07-23 08:33:00,
2013-07-23 03:43:00,57.0,54.0,29.88,NNW,330,1.0,-999.0,91,-99.99,,,-99.99,0.000000,,2013-07-23 08:43:00,
2013-07-23 03:52:00,56.0,53.0,29.89,NNW,330,0.0,-999.0,91,-99.99,,,-99.99,0.000000,,2013-07-23 08:52:00,
2013-07-23 04:01:00,56.0,53.0,29.89,NNW,330,0.0,-999.0,91,-99.99,,,-99.99,0.000000,,2013-07-23 09:01:00,
2013-07-23 04:11:00,56.0,53.0,29.88,NNW,330,0.0,-999.0,91,-99.99,,,-99.99,0.000000,,2013-07-23 09:11:00,
2013-07-23 04:22:00,56.0,53.0,29.88,NNW,330,0.0,-999.0,91,-99.99,,,-99.99,0.000000,,2013-07-23 09:22:00,
2013-07-23 04:33:00,56.0,53.0,29.88,NNW,330,0.0,-999.0,91,-99.99,,,-99.99,0.000000,,2013-07-23 09:33:00,
2013-07-23 04:42:00,55.0,53.0,29.87,NNW,330,0.0,-999.0,92,-99.99,,,-99.99,0.000000,,2013-07-23 09:42:00,
2013-07-23 04:52:00,55.0,53.0,29.89,NNW,330,0.0,-999.0,92,-99.99,,,-99.99,0.000000,,2013-07-23 09:52:00,
2013-07-23 05:02:00,55.0,53.0,29.89,NNW,330,0.0,-999.0,92,-99.99,,,-99.99,0.000000,,2013-07-23 10:02:00,
2013-07-23 05:11:00,55.0,53.0,29.88,NNW,330,0.0,-999.0,92,-99.99,,,-99.99,0.000000,,2013-07-23 10:11:00,
2013-07-23 05:22:00,55.0,53.0,29.89,NNW,330,0.0,-999.0,92,-99.99,,,-99.99,0.000000,,2013-07-23 10:22:00,
2013-07-23 05:32:00,55.0,53.0,29.89,NNW,330,0.0,-999.0,92,-99.99,,,-99.99,0.000000,,2013-07-23 10:32:00,
2013-07-23 05:44:00,55.0,53.0,29.90,NNW,330,0.0,-999.0,92,-99.99,,,-99.99,0.000000,,2013-07-23 10:44:00,
2013-07-23 05:52:00,55.0,53.0,29.90,NNW,330,0.0,-999.0,92,-99.99,,,-99.99,0.000000,,2013-07-23 10:52:00,
2013-07-23 06:02:00,54.0,52.0,29.91,NNW,330,0.0,-999.0,93,-99.99,,,-99.99,0.000000,,2013-07-23 11:02:00,
2013-07-23 06:12:00,54.0,52.0,29.92,NNW,330,1.0,-999.0,93,-99.99,,,-99.99,5.000000,,2013-07-23 11:12:00,
2013-07-23 06:22:00,54.0,52.0,29.92,NNW,330,1.0,-999.0,93,-99.99,,,-99.99,5.000000,,2013-07-23 11:22:00,
2013-07-23 06:32:00,53.0,51.0,29.93,NNW,330,1.0,-999.0,93,-99.99,,,-99.99,11.000000,,2013-07-23 11:32:00,
2013-07-23 06:43:00,53.0,51.0,29.95,NW,321,4.0,-999.0,93,-99.99,,,-99.99,18.000000,,2013-07-23 11:43:00,
2013-07-23 06:52:00,53.0,51.0,29.95,NW,321,4.0,-999.0,93,-99.99,,,-99.99,18.000000,,2013-07-23 11:52:00,
2013-07-23 07:02:00,53.0,51.0,29.95,NW,318,5.0,-999.0,93,-99.99,,,-99.99,23.000000,,2013-07-23 12:02:00,
2013-07-23 07:11:00,53.0,51.0,29.94,NW,318,1.0,-999.0,93,-99.99,,,-99.99,60.000000,,2013-07-23 12:11:00,
2013-07-23 07:22:00,53.0,51.0,29.94,NW,318,1.0,-999.0,93,-99.99,,,-99.99,60.000000,,2013-07-23 12:22:00,
2013-07-23 07:33:00,54.0,52.0,29.94,NW,318,1.0,-999.0,93,-99.99,,,-99.99,111.000000,,2013-07-23 12:33:00,
2013-07-23 07:43:00,55.0,53.0,29.95,NW,318,0.0,-999.0,93,-99.99,,,-99.99,162.000000,,2013-07-23 12:43:00,
2013-07-23 08:01:00,56.0,54.0,29.95,NW,318,1.0,-999.0,92,-99.99,,,-99.99,213.000000,,2013-07-23 13:01:00,
2013-07-23 08:11:00,56.0,53.0,29.94,NW,318,2.0,-999.0,91,-99.99,,,-99.99,272.000000,,2013-07-23 13:11:00,
2013-07-23 08:22:00,56.0,53.0,29.94,NW,318,2.0,-999.0,91,-99.99,,,-99.99,272.000000,,2013-07-23 13:22:00,
2013-07-23 08:32:00,58.0,55.0,29.95,NW,318,1.0,-999.0,90,-99.99,,,-99.99,352.000000,,2013-07-23 13:32:00,
2013-07-23 08:43:00,60.0,57.0,29.95,NW,318,1.0,-999.0,89,-99.99,,,-99.99,452.000000,,2013-07-23 13:43:00,
2013-07-23 08:52:00,60.0,57.0,29.95,NW,318,1.0,-999.0,89,-99.99,,,-99.99,452.000000,,2013-07-23 13:52:00,
2013-07-23 09:02:00,62.0,56.0,29.96,NW,319,1.0,-999.0,81,-99.99,,,-99.99,436.000000,,2013-07-23 14:02:00,
2013-07-23 09:12:00,64.0,57.0,29.96,NW,325,2.0,-999.0,78,-99.99,,,-99.99,443.000000,,2013-07-23 14:12:00,
2013-07-23 09:22:00,64.0,57.0,29.96,NW,325,2.0,-999.0,78,-99.99,,,-99.99,443.000000,,2013-07-23 14:22:00,
2013-07-23 09:32:00,66.0,58.0,29.96,NNW,327,2.0,-999.0,75,-99.99,,,-99.99,464.000000,,2013-07-23 14:32:00,
2013-07-23 09:44:00,66.0,57.0,29.97,NW,326,1.0,-999.0,73,-99.99,,,-99.99,522.000000,,2013-07-23 14:44:00,
2013-07-23 09:53:00,66.0,57.0,29.97,NW,326,1.0,-999.0,73,-99.99,,,-99.99,522.000000,,2013-07-23 14:53:00,
2013-07-23 10:03:00,67.0,58.0,29.97,NNW,333,1.0,-999.0,72,-99.99,,,-99.99,575.000000,,2013-07-23 15:03:00,
2013-07-23 10:11:00,68.0,58.0,29.97,NNW,347,1.0,-999.0,71,-99.99,,,-99.99,606.000000,,2013-07-23 15:11:00,
2013-07-23 10:24:00,68.0,58.0,29.97,NNW,347,1.0,-999.0,71,-99.99,,,-99.99,606.000000,,2013-07-23 15:24:00,
2013-07-23 10:32:00,69.0,58.0,29.97,North,355,1.0,-999.0,68,-99.99,,,-99.99,661.000000,,2013-07-23 15:32:00,
2013-07-23 10:43:00,69.0,58.0,29.97,North,355,1.0,-999.0,68,-99.99,,,-99.99,661.000000,,2013-07-23 15:43:00,
2013-07-23 10:52:00,70.0,58.0,29.98,North,360,0.0,-999.0,65,-99.99,,,-99.99,740.000000,,2013-07-23 15:52:00,
2013-07-23 11:01:00,70.0,58.0,29.98,North,360,0.0,-999.0,65,-99.99,,,-99.99,740.000000,,2013-07-23 16:01:00,
2013-07-23 11:12:00,70.0,58.0,29.98,North,360,0.0,-999.0,65,-99.99,,,-99.99,740.000000,,2013-07-23 16:12:00,
2013-07-23 11:22:00,71.0,56.0,29.98,North,9,2.0,-999.0,59,-99.99,,,-99.99,905.000000,,2013-07-23 16:22:00,
2013-07-23 11:33:00,69.0,56.0,29.98,North,5,2.0,-999.0,63,-99.99,,,-99.99,250.000000,,2013-07-23 16:33:00,
2013-07-23 11:43:00,69.0,56.0,29.98,North,5,2.0,-999.0,63,-99.99,,,-99.99,250.000000,,2013-07-23 16:43:00,
2013-07-23 11:52:00,68.0,55.0,29.98,North,360,0.0,-999.0,63,-99.99,,,-99.99,272.000000,,2013-07-23 16:52:00,
2013-07-23 12:02:00,70.0,55.0,29.97,North,360,0.0,-999.0,58,-99.99,,,-99.99,,,2013-07-23 17:02:00,
2013-07-23 12:11:00,70.0,55.0,29.97,North,360,0.0,-999.0,58,-99.99,,,-99.99,,,2013-07-23 17:11:00,
2013-07-23 12:21:00,70.0,55.0,29.97,North,360,1.0,-999.0,60,-99.99,,,-99.99,942.000000,,2013-07-23 17:21:00,
2013-07-23 12:32:00,73.0,56.0,29.97,North,360,1.0,-999.0,56,-99.99,,,-99.99,,,2013-07-23 17:32:00,
2013-07-23 12:42:00,73.0,56.0,29.97,North,360,1.0,-999.0,56,-99.99,,,-99.99,,,2013-07-23 17:42:00,
2013-07-23 12:56:00,73.0,56.0,29.97,NNW,344,0.0,-999.0,55,-99.99,,,-99.99,,,2013-07-23 17:56:00,
2013-07-23 13:02:00,73.0,55.0,29.97,NNW,346,1.0,-999.0,53,-99.99,,,-99.99,,,2013-07-23 18:02:00,
2013-07-23 13:12:00,73.0,55.0,29.97,NNW,346,1.0,-999.0,53,-99.99,,,-99.99,,,2013-07-23 18:12:00,
2013-07-23 13:24:00,75.0,56.0,29.97,NNW,346,0.0,-999.0,52,-99.99,,,-99.99,223.000000,,2013-07-23 18:24:00,
2013-07-23 13:33:00,73.0,55.0,29.97,NNW,346,0.0,-999.0,54,-99.99,,,-99.99,299.000000,,2013-07-23 18:33:00,
2013-07-23 13:46:00,73.0,55.0,29.97,NNW,346,0.0,-999.0,54,-99.99,,,-99.99,299.000000,,2013-07-23 18:46:00,
2013-07-23 13:56:00,76.0,56.0,29.96,NNW,348,0.0,-999.0,50,-99.99,,,-99.99,,,2013-07-23 18:56:00,
2013-07-23 14:03:00,76.0,55.0,29.96,North,350,2.0,-999.0,48,-99.99,,,-99.99,339.000000,,2013-07-23 19:03:00,
2013-07-23 14:14:00,76.0,55.0,29.96,North,350,2.0,-999.0,48,-99.99,,,-99.99,339.000000,,2013-07-23 19:14:00,
2013-07-23 14:33:00,76.0,55.0,29.96,North,355,0.0,-999.0,48,-99.99,,,-99.99,,,2013-07-23 19:33:00,
2013-07-23 14:46:00,76.0,55.0,29.96,North,355,0.0,-999.0,48,-99.99,,,-99.99,,,2013-07-23 19:46:00,
2013-07-23 14:55:00,75.0,53.0,29.96,North,350,1.0,-999.0,47,-99.99,,,-99.99,,,2013-07-23 19:55:00,
2013-07-23 15:03:00,77.0,55.0,29.96,North,355,0.0,-999.0,46,-99.99,,,-99.99,397.000000,,2013-07-23 20:03:00,
2013-07-23 15:12:00,77.0,55.0,29.96,North,355,0.0,-999.0,46,-99.99,,,-99.99,397.000000,,2013-07-23 20:12:00,
2013-07-23 15:22:00,76.0,55.0,29.96,North,350,2.0,-999.0,48,-99.99,,,-99.99,343.000000,,2013-07-23 20:22:00,
2013-07-23 15:34:00,76.0,55.0,29.96,North,350,2.0,-999.0,48,-99.99,,,-99.99,343.000000,,2013-07-23 20:34:00,
2013-07-23 15:44:00,76.0,55.0,29.97,North,350,1.0,-999.0,49,-99.99,,,-99.99,290.000000,,2013-07-23 20:44:00,
2013-07-23 15:59:00,75.0,55.0,29.96,NNW,347,1.0,-999.0,50,-99.99,,,-99.99,315.000000,,2013-07-23 20:59:00,
2013-07-23 16:04:00,75.0,55.0,29.96,NNW,347,1.0,-999.0,50,-99.99,,,-99.99,315.000000,,2013-07-23 21:04:00,
2013-07-23 16:13:00,75.0,56.0,29.97,NNW,329,3.0,-999.0,52,-99.99,,,-99.99,308.000000,,2013-07-23 21:13:00,
2013-07-23 16:22:00,75.0,55.0,29.96,NNW,331,1.0,-999.0,49,-99.99,,,-99.99,911.000000,,2013-07-23 21:22:00,
2013-07-23 16:34:00,75.0,55.0,29.96,NNW,331,1.0,-999.0,49,-99.99,,,-99.99,911.000000,,2013-07-23 21:34:00,
2013-07-23 16:46:00,75.0,54.0,29.96,NW,326,2.0,-999.0,48,-99.99,,,-99.99,492.000000,,2013-07-23 21:46:00,
2013-07-23 16:54:00,75.0,55.0,29.96,NW,323,3.0,-999.0,49,-99.99,,,-99.99,844.000000,,2013-07-23 21:54:00,
2013-07-23 17:04:00,75.0,55.0,29.96,NW,323,3.0,-999.0,49,-99.99,,,-99.99,844.000000,,2013-07-23 22:04:00,
2013-07-23 17:23:00,77.0,56.0,29.96,North,350,1.0,-999.0,48,-99.99,,,-99.99,747.000000,,2013-07-23 22:23:00,
2013-07-23 17:33:00,77.0,56.0,29.96,North,350,1.0,-999.0,48,-99.99,,,-99.99,747.000000,,2013-07-23 22:33:00,
2013-07-23 17:44:00,75.0,56.0,29.96,North,349,0.0,-999.0,51,-99.99,,,-99.99,169.000000,,2013-07-23 22:44:00,
2013-07-23 17:55:00,76.0,55.0,29.96,North,355,1.0,-999.0,49,-99.99,,,-99.99,116.000000,,2013-07-23 22:55:00,
2013-07-23 18:04:00,76.0,55.0,29.96,North,355,1.0,-999.0,49,-99.99,,,-99.99,116.000000,,2013-07-23 23:04:00,
2013-07-23 18:12:00,75.0,55.0,29.96,North,360,0.0,-999.0,50,-99.99,,,-99.99,450.000000,,2013-07-23 23:12:00,
2013-07-23 18:24:00,76.0,55.0,29.95,North,355,1.0,-999.0,48,-99.99,,,-99.99,504.000000,,2013-07-23 23:24:00,
2013-07-23 18:35:00,76.0,55.0,29.95,North,355,1.0,-999.0,48,-99.99,,,-99.99,504.000000,,2013-07-23 23:35:00,
2013-07-23 18:44:00,77.0,55.0,29.95,North,355,0.0,-999.0,46,-99.99,,,-99.99,179.000000,,2013-07-23 23:44:00,
2013-07-23 19:06:00,76.0,55.0,29.95,North,355,0.0,-999.0,48,-99.99,,,-99.99,155.000000,,2013-07-24 00:06:00,
2013-07-23 19:13:00,76.0,55.0,29.94,North,355,0.0,-999.0,49,-99.99,,,-99.99,325.000000,,2013-07-24 00:13:00,
2013-07-23 19:24:00,75.0,57.0,29.94,North,355,0.0,-999.0,53,-99.99,,,-99.99,271.000000,,2013-07-24 00:24:00,
2013-07-23 19:34:00,75.0,57.0,29.94,North,355,0.0,-999.0,53,-99.99,,,-99.99,271.000000,,2013-07-24 00:34:00,
2013-07-23 19:46:00,74.0,55.0,29.94,North,355,0.0,-999.0,52,-99.99,,,-99.99,216.000000,,2013-07-24 00:46:00,
2013-07-23 19:53:00,75.0,55.0,29.94,North,355,0.0,-999.0,50,-99.99,,,-99.99,169.000000,,2013-07-24 00:53:00,
2013-07-23 20:13:00,75.0,56.0,29.94,North,355,0.0,-999.0,52,-99.99,,,-99.99,116.000000,,2013-07-24 01:13:00,
2013-07-23 20:24:00,74.0,56.0,29.95,North,355,0.0,-999.0,54,-99.99,,,-99.99,51.000000,,2013-07-24 01:24:00,
2013-07-23 20:33:00,74.0,56.0,29.95,North,355,0.0,-999.0,54,-99.99,,,-99.99,51.000000,,2013-07-24 01:33:00,
2013-07-23 20:44:00,73.0,56.0,29.95,North,355,0.0,-999.0,56,-99.99,,,-99.99,40.000000,,2013-07-24 01:44:00,
2013-07-23 20:55:00,73.0,56.0,29.95,North,355,0.0,-999.0,56,-99.99,,,-99.99,18.000000,,2013-07-24 01:55:00,
2013-07-23 21:03:00,73.0,56.0,29.95,North,355,0.0,-999.0,56,-99.99,,,-99.99,18.000000,,2013-07-24 02:03:00,
2013-07-23 21:15:00,71.0,57.0,29.95,North,355,0.0,-999.0,61,-99.99,,,-99.99,5.000000,,2013-07-24 02:15:00,
2013-07-23 21:24:00,71.0,57.0,29.95,North,355,0.0,-999.0,61,-99.99,,,-99.99,5.000000,,2013-07-24 02:24:00,
2013-07-23 21:36:00,69.0,57.0,29.96,North,355,0.0,-999.0,66,-99.99,,,-99.99,0.000000,,2013-07-24 02:36:00,
2013-07-23 21:46:00,68.0,57.0,29.96,North,355,0.0,-999.0,68,-99.99,,,-99.99,0.000000,,2013-07-24 02:46:00,
2013-07-23 21:55:00,68.0,57.0,29.96,North,355,0.0,-999.0,68,-99.99,,,-99.99,0.000000,,2013-07-24 02:55:00,
2013-07-23 22:02:00,67.0,56.0,29.97,North,355,0.0,-999.0,68,-99.99,,,-99.99,0.000000,,2013-07-24 03:02:00,
2013-07-23 22:23:00,67.0,56.0,29.97,North,355,0.0,-999.0,68,-99.99,,,-99.99,0.000000,,2013-07-24 03:23:00,
2013-07-23 22:35:00,67.0,56.0,29.97,North,355,0.0,-999.0,69,-99.99,,,-99.99,0.000000,,2013-07-24 03:35:00,
2013-07-23 22:44:00,66.0,56.0,29.97,North,355,0.0,-999.0,71,-99.99,,,-99.99,0.000000,,2013-07-24 03:44:00,
2013-07-23 22:53:00,66.0,56.0,29.97,North,355,0.0,-999.0,71,-99.99,,,-99.99,0.000000,,2013-07-24 03:53:00,
2013-07-23 23:01:00,65.0,56.0,29.97,North,355,0.0,-999.0,72,-99.99,,,-99.99,0.000000,,2013-07-24 04:01:00,
2013-07-23 23:11:00,65.0,56.0,29.97,North,355,0.0,-999.0,72,-99.99,,,-99.99,0.000000,,2013-07-24 04:11:00,
2013-07-23 23:22:00,65.0,56.0,29.97,North,355,0.0,-999.0,72,-99.99,,,-99.99,0.000000,,2013-07-24 04:22:00,
2013-07-23 23:32:00,64.0,55.0,29.97,North,355,0.0,-999.0,72,-99.99,,,-99.99,0.000000,,2013-07-24 04:32:00,
2013-07-23 23:43:00,64.0,55.0,29.97,North,355,0.0,-999.0,73,-99.99,,,-99.99,0.000000,,2013-07-24 04:43:00,
2013-07-23 23:52:00,64.0,55.0,29.97,North,355,0.0,-999.0,73,-99.99,,,-99.99,0.000000,,2013-07-24 04:52:00,